GW4812 Weather Reports


time (UTC)temp
F
wind
direction
speed
knots
gust
knots
rain 1hr
in
rain 24hr
in
rain mn
in
humidity
%
barometer
mb
20260505231052 78 209 1.7 3.5 0.00 0.00 0.02 36 1009.0
20260505230553 78 210 1.7 5.2 0.00 0.00 0.02 36 1008.0
20260505230053 78 247 2.6 5.2 0.00 0.00 0.02 36 1008.0
20260505225556 78 213 1.7 3.5 0.00 0.00 0.02 37 1008.0
20260505225053 78 346 0.9 2.6 0.00 0.00 0.02 36 1008.0
20260505224553 79 209 1.7 3.5 0.00 0.00 0.02 36 1008.0
20260505224053 79 210 1.7 3.5 0.00 0.00 0.02 35 1008.0
20260505223553 79 222 1.7 2.6 0.00 0.00 0.02 35 1008.0
20260505223053 79 246 1.7 2.6 0.00 0.00 0.02 35 1008.0
20260505222552 79 220 1.7 3.5 0.00 0.00 0.02 35 1008.0
20260505222055 79 202 1.7 4.3 0.00 0.00 0.02 34 1008.0
20260505221553 79 274 1.7 3.5 0.00 0.00 0.02 34 1008.0
20260505221053 79 240 1.7 2.6 0.00 0.00 0.02 34 1008.0
20260505220553 79 226 1.7 2.6 0.00 0.00 0.02 34 1008.0
20260505220052 80 166 0.9 1.7 0.00 0.00 0.02 33 1008.0
20260505215553 80 231 0.9 1.7 0.00 0.00 0.02 33 1008.0
20260505215053 80 207 1.7 2.6 0.00 0.00 0.02 32 1008.0
20260505214553 80 150 1.7 3.5 0.00 0.00 0.02 32 1008.0
20260505214053 80 211 1.7 4.3 0.00 0.00 0.02 32 1008.0
20260505213553 81 255 2.6 5.2 0.00 0.00 0.02 32 1008.0
20260505213053 81 267 0.9 2.6 0.00 0.00 0.02 33 1008.0
20260505212553 81 268 3.5 5.2 0.00 0.00 0.02 32 1008.0
20260505212053 82 204 1.7 4.3 0.00 0.00 0.02 33 1008.0
20260505211552 82 305 1.7 3.5 0.00 0.00 0.02 34 1008.0
20260505211052 82 290 2.6 7.8 0.00 0.00 0.02 33 1008.0
20260505210552 82 272 1.7 4.3 0.00 0.00 0.02 34 1008.0
20260505210052 82 210 2.6 4.3 0.00 0.00 0.02 34 1008.0
20260505205552 82 319 3.5 4.3 0.00 0.00 0.02 33 1007.0
20260505205053 82 277 1.7 4.3 0.00 0.00 0.02 34 1008.0
20260505204553 82 219 2.6 3.5 0.00 0.00 0.02 34 1008.0
20260505204053 82 270 2.6 3.5 0.00 0.00 0.02 34 1008.0
20260505203553 82 325 2.6 4.3 0.00 0.00 0.02 34 1008.0
20260505203053 82 238 3.5 7.0 0.00 0.00 0.02 34 1008.0
20260505202552 82 262 1.7 3.5 0.00 0.00 0.02 34 1008.0
20260505202053 83 194 2.6 4.3 0.00 0.00 0.02 33 1008.0
20260505201553 83 264 1.7 3.5 0.00 0.00 0.02 34 1008.0
20260505201053 83 270 2.6 5.2 0.00 0.00 0.02 35 1008.0
20260505200552 83 273 1.7 2.6 0.00 0.00 0.02 34 1008.0
20260505200055 83 275 0.9 2.6 0.00 0.00 0.02 36 1008.0
20260505195553 83 284 0.9 1.7 0.00 0.00 0.02 36 1008.0
20260505195053 83 315 2.6 4.3 0.00 0.00 0.02 37 1008.0
20260505194552 83 274 2.6 5.2 0.00 0.00 0.02 38 1008.0
20260505194052 82 216 1.7 3.5 0.00 0.00 0.02 38 1008.0
20260505193552 82 284 1.7 3.5 0.00 0.00 0.02 38 1008.0
20260505193053 82 209 3.5 5.2 0.00 0.00 0.02 36 1008.0
20260505192553 82 196 2.6 5.2 0.00 0.00 0.02 36 1008.0
20260505192052 82 213 2.6 3.5 0.00 0.00 0.02 38 1008.0
20260505191553 82 261 2.6 6.1 0.00 0.00 0.02 36 1008.0
20260505191055 82 288 3.5 6.1 0.00 0.00 0.02 34 1008.0
20260505190553 82 204 3.5 6.1 0.00 0.00 0.02 35 1009.0
20260505190052 82 191 1.7 2.6 0.00 0.00 0.02 36 1009.0
20260505185552 82 271 1.7 2.6 0.00 0.00 0.02 38 1009.0
20260505185052 82 201 1.7 3.5 0.00 0.00 0.02 37 1009.0
20260505184553 82 177 2.6 4.3 0.00 0.00 0.02 37 1009.0
20260505184052 82 215 4.3 7.0 0.00 0.00 0.02 36 1009.0
20260505183553 82 211 3.5 7.0 0.00 0.00 0.02 36 1009.0
20260505183052 82 223 2.6 7.0 0.00 0.00 0.02 37 1009.0
20260505182553 82 218 1.7 3.5 0.00 0.00 0.02 36 1009.0
20260505182054 82 238 1.7 2.6 0.00 0.00 0.02 37 1009.0
20260505181552 82 209 2.6 5.2 0.00 0.00 0.02 38 1009.0
20260505181056 82 283 1.7 3.5 0.00 0.00 0.02 39 1009.0
20260505180555 82 270 0.9 1.7 0.00 0.00 0.02 40 1009.0
20260505180052 82 216 2.6 4.3 0.00 0.00 0.02 37 1009.0
20260505175553 82 201 2.6 5.2 0.00 0.00 0.02 39 1009.0
20260505175053 82 338 3.5 7.0 0.00 0.00 0.02 40 1009.0
20260505174553 82 315 2.6 6.1 0.00 0.00 0.02 39 1009.0
20260505174053 82 227 1.7 2.6 0.00 0.00 0.02 40 1009.0
20260505173553 81 235 1.7 3.5 0.00 0.00 0.02 42 1009.0
20260505173053 81 291 1.7 3.5 0.00 0.00 0.02 42 1009.0
20260505172553 81 307 2.6 6.1 0.00 0.00 0.02 40 1009.0
20260505172053 81 258 0.9 2.6 0.00 0.00 0.02 42 1010.0
20260505171553 80 230 1.7 2.6 0.00 0.00 0.02 41 1010.0
20260505171053 80 218 0.9 1.7 0.00 0.00 0.02 43 1010.0
20260505170552 80 224 1.7 2.6 0.00 0.00 0.02 42 1010.0
20260505170053 80 243 2.6 3.5 0.00 0.00 0.02 43 1010.0
20260505165553 79 226 1.7 2.6 0.00 0.00 0.02 44 1010.0
20260505165059 79 238 1.7 2.6 0.00 0.00 0.02 43 1010.0
20260505164556 79 242 1.7 2.6 0.00 0.00 0.02 43 1010.0
20260505164053 79 252 1.7 2.6 0.00 0.00 0.02 44 1010.0
20260505163553 79 249 2.6 4.3 0.00 0.00 0.02 45 1010.0
20260505163054 79 198 1.7 3.5 0.00 0.00 0.02 45 1010.0
20260505162553 78 258 0.9 1.7 0.00 0.00 0.02 46 1010.0
20260505162055 78 220 0.9 1.7 0.00 0.00 0.02 45 1010.0
20260505161553 78 218 1.7 3.5 0.00 0.00 0.02 46 1010.0
20260505161053 77 278 1.7 2.6 0.00 0.00 0.02 47 1010.0
20260505160554 77 200 1.7 3.5 0.00 0.00 0.02 45 1010.0
20260505153054 75 293 1.7 1.7 0.00 0.00 0.02 50 1011.0
20260505152556 75 213 0.9 1.7 0.00 0.00 0.02 50 1011.0
20260505152055 75 281 1.7 2.6 0.00 0.00 0.02 50 1011.0
20260505151555 74 179 1.7 3.5 0.00 0.00 0.02 51 1011.0
20260505151053 74 237 0.9 1.7 0.00 0.00 0.02 52 1011.0
20260505150553 74 96 0.9 1.7 0.00 0.00 0.02 51 1011.0
20260505140553 69 332 0.9 1.7 0.00 0.00 0.02 60 1012.0
20260505124553 65 264 0.9 2.6 0.00 0.00 0.02 69 1011.0
20260505124053 65 260 1.7 3.5 0.00 0.00 0.02 67 1012.0
20260505123552 65 241 0.0 1.7 0.00 0.00 0.02 70 1011.0
20260505123053 65 257 0.9 1.7 0.00 0.00 0.02 70 1011.0
20260505122552 65 0 0.0 0.0 0.00 0.00 0.02 70 1011.0
20260505122053 64 265 0.0 0.0 0.00 0.00 0.02 71 1011.0
20260505121553 63 212 0.0 1.7 0.00 0.00 0.02 73 1011.0
20260505121052 62 225 0.0 0.0 0.00 0.00 0.02 76 1011.0
20260505120553 60 206 0.0 1.7 0.00 0.00 0.02 77 1011.0
20260505120053 59 198 0.0 0.9 0.00 0.00 0.02 80 1011.0
20260505115553 58 274 0.9 1.7 0.00 0.00 0.02 80 1011.0
20260505115052 57 190 0.9 1.7 0.00 0.00 0.02 87 1011.0
20260505114553 56 267 0.0 0.9 0.00 0.00 0.02 90 1011.0
20260505114053 55 0 0.0 0.0 0.00 0.00 0.02 91 1011.0
20260505113553 55 0 0.0 0.0 0.00 0.00 0.02 91 1011.0
20260505113053 54 133 0.0 0.9 0.00 0.00 0.02 92 1011.0
20260505112552 54 268 0.0 0.0 0.00 0.00 0.02 92 1011.0
20260505112055 54 0 0.0 0.0 0.00 0.00 0.01 92 1011.0
20260505111552 54 234 0.9 0.9 0.00 0.00 0.01 92 1011.0
20260505111052 54 0 0.0 0.0 0.00 0.00 0.01 91 1011.0
20260505110553 54 0 0.0 0.0 0.00 0.00 0.01 91 1011.0
20260505102052 55 237 0.9 0.9 0.05 0.00 0.01 85 1011.0
20260505101552 56 213 1.7 1.7 0.01 0.00 0.01 82 1011.0
20260505101053 56 210 0.9 0.9 0.02 0.00 0.00 78 1011.0
20260505100553 56 241 0.9 1.7 0.00 0.00 0.00 77 1011.0
20260505100053 56 199 0.0 0.0 0.00 0.00 0.00 77 1011.0
20260505095553 56 228 0.9 1.7 0.00 0.00 0.00 76 1011.0
20260505095053 56 221 0.9 1.7 0.00 0.00 0.00 74 1011.0
20260505094552 57 184 0.0 0.9 0.00 0.00 0.00 74 1011.0
20260505094052 57 0 0.0 0.0 0.00 0.00 0.00 73 1011.0
20260505093552 57 196 0.9 2.6 0.00 0.00 0.00 73 1011.0
20260505093055 57 210 0.9 1.7 0.00 0.00 0.00 74 1011.0
20260505092553 56 347 0.0 0.0 0.00 0.00 0.00 74 1011.0
20260505092052 56 0 0.0 0.0 0.00 0.00 0.00 74 1011.0
20260505091552 56 223 0.0 0.9 0.00 0.00 0.00 75 1010.0
20260505091053 55 255 0.9 1.7 0.00 0.00 0.00 75 1010.0
20260505090552 54 236 0.9 1.7 0.00 0.00 0.00 79 1010.0
20260505090053 54 214 0.9 0.9 0.00 0.00 0.00 79 1010.0
20260505085552 55 0 0.0 0.0 0.00 0.00 0.00 79 1010.0
20260505085053 55 0 0.0 0.0 0.00 0.00 0.00 79 1010.0
20260505084552 55 213 0.9 1.7 0.00 0.00 0.00 78 1010.0
20260505084053 55 205 0.9 0.9 0.00 0.00 0.00 76 1010.0
20260505083552 56 264 0.0 0.9 0.00 0.00 0.00 76 1010.0
20260505083052 56 200 0.0 0.0 0.00 0.00 0.00 75 1010.0
20260505082553 56 230 0.0 0.9 0.00 0.00 0.00 76 1010.0
20260505082052 56 206 0.9 0.9 0.00 0.00 0.00 75 1010.0
20260505081553 56 0 0.0 0.0 0.00 0.00 0.00 75 1010.0
20260505081052 56 0 0.0 0.0 0.00 0.00 0.00 75 1010.0
20260505080553 56 200 1.7 1.7 0.00 0.00 0.00 75 1010.0
20260505080054 56 226 0.0 0.9 0.00 0.00 0.00 74 1010.0
20260505075552 56 228 0.0 0.0 0.00 0.00 0.00 74 1010.0
20260505075053 56 224 0.0 0.9 0.00 0.00 0.00 74 1010.0
20260505074553 56 0 0.0 0.0 0.00 0.00 0.00 73 1010.0
20260505074052 56 252 0.0 0.9 0.00 0.00 0.00 74 1010.0
20260505073552 56 242 0.9 1.7 0.00 0.00 0.00 73 1010.0
20260505072606 56 258 0.0 0.9 0.00 0.00 0.00 75 1010.0
20260505072053 55 239 0.9 0.9 0.00 0.00 0.00 75 1010.0
20260505071552 55 0 0.0 0.0 0.00 0.00 0.00 77 1010.0
20260505071053 55 165 0.0 0.9 0.00 0.00 0.00 77 1010.0
20260505070553 55 234 0.0 0.0 0.00 0.00 0.00 78 1010.0
20260505070053 54 0 0.0 0.0 0.00 0.00 0.00 78 1010.0
20260505065552 54 247 0.0 0.9 0.00 0.00 0.00 78 1010.0
20260505065053 54 244 0.9 0.9 0.00 0.00 0.00 79 1010.0
20260505064552 53 187 0.0 0.9 0.00 0.00 0.00 79 1010.0
20260505064052 53 292 0.9 1.7 0.00 0.00 0.00 79 1010.0
20260505063553 53 0 0.0 0.0 0.00 0.00 0.00 81 1010.0
20260505063055 52 248 1.7 1.7 0.00 0.00 0.00 81 1010.0
20260505062553 52 208 0.0 0.9 0.00 0.00 0.00 81 1010.0
20260505062053 52 233 0.0 0.9 0.00 0.00 0.00 81 1010.0
20260505061552 52 272 0.9 0.9 0.00 0.00 0.00 81 1010.0
20260505061053 52 264 0.9 1.7 0.00 0.00 0.00 81 1010.0
20260505060552 52 249 0.0 0.0 0.00 0.00 0.00 81 1010.0
20260505060053 52 235 0.0 0.9 0.00 0.00 0.00 80 1010.0
20260505055552 52 0 0.0 0.0 0.00 0.00 0.00 80 1010.0
20260505055052 52 326 0.9 0.9 0.00 0.00 0.00 79 1010.0
20260505054552 52 0 0.0 0.0 0.00 0.00 0.00 79 1010.0
20260505054054 52 0 0.0 0.0 0.00 0.00 0.00 78 1011.0
20260505053553 53 209 0.9 0.9 0.00 0.00 0.00 78 1011.0
20260505053054 53 263 0.9 0.9 0.00 0.00 0.00 78 1011.0
20260505052553 53 234 0.0 0.0 0.00 0.00 0.00 77 1011.0
20260505052052 53 263 0.0 0.9 0.00 0.00 0.00 76 1011.0
20260505051553 53 274 0.9 0.9 0.00 0.00 0.00 76 1011.0
20260505051054 54 0 0.0 0.0 0.00 0.00 0.00 75 1011.0
20260505050552 54 173 0.0 0.0 0.00 0.00 0.00 75 1011.0
20260505041553 55 0 0.0 0.0 0.00 0.00 0.00 70 1011.0
20260505041057 55 0 0.0 0.0 0.00 0.00 0.00 70 1011.0
20260505040553 55 56 0.0 0.0 0.00 0.00 0.00 70 1011.0
20260505040056 55 218 0.0 0.0 0.00 0.00 0.00 70 1011.0
20260505035553 55 208 0.9 0.9 0.00 0.00 0.00 70 1011.0
20260505035055 55 260 0.0 0.9 0.00 0.00 0.00 69 1011.0
20260505034552 55 0 0.0 0.0 0.00 0.00 0.00 68 1011.0
20260505034054 56 197 0.0 0.9 0.00 0.00 0.00 67 1011.0
20260505033552 56 220 0.0 0.9 0.00 0.00 0.00 67 1011.0
20260505033053 56 0 0.0 0.0 0.00 0.00 0.00 66 1011.0
20260505032553 56 0 0.0 0.0 0.00 0.00 0.00 65 1011.0
20260505032056 57 0 0.0 0.0 0.00 0.00 0.00 66 1011.0
20260505031553 57 265 0.0 0.0 0.00 0.00 0.00 64 1011.0
20260505031053 58 257 0.0 0.0 0.00 0.00 0.00 64 1011.0
20260505030553 58 210 0.0 0.9 0.00 0.00 0.00 63 1011.0
20260505030053 58 0 0.0 0.0 0.00 0.00 0.00 61 1011.0
20260505025552 58 225 0.9 0.9 0.00 0.00 0.00 62 1011.0
20260505025055 58 259 0.9 0.9 0.00 0.00 0.00 60 1011.0
20260505024553 58 16 0.0 0.9 0.00 0.00 0.00 59 1011.0
20260505024053 58 0 0.0 0.0 0.00 0.00 0.00 60 1011.0
20260505023553 58 248 0.0 0.9 0.00 0.00 0.00 59 1011.0
20260505023052 58 0 0.0 0.0 0.00 0.00 0.00 58 1011.0
20260505022552 57 231 0.0 0.9 0.00 0.00 0.00 61 1011.0
20260505022052 57 186 0.0 0.9 0.00 0.00 0.00 62 1011.0
20260505021556 57 0 0.0 0.0 0.00 0.00 0.00 63 1011.0
20260505021053 57 250 0.0 1.7 0.00 0.00 0.00 62 1011.0
20260505020553 57 232 0.9 1.7 0.00 0.00 0.00 64 1011.0
20260505020052 57 0 0.0 0.0 0.00 0.00 0.00 64 1011.0
20260505015553 57 140 0.0 0.0 0.00 0.00 0.00 63 1011.0
20260505015052 58 0 0.0 0.0 0.00 0.00 0.00 65 1011.0
20260505014553 58 262 0.0 1.7 0.00 0.00 0.00 64 1011.0
20260505014055 58 205 0.0 0.9 0.00 0.00 0.00 63 1011.0
20260505013553 58 271 0.0 1.7 0.00 0.00 0.00 63 1011.0
20260505013053 58 249 0.0 0.9 0.00 0.00 0.00 63 1011.0
20260505012554 59 0 0.0 0.0 0.00 0.00 0.00 62 1011.0
20260505012052 59 210 0.0 0.9 0.00 0.00 0.00 62 1011.0
20260505011554 59 291 0.0 0.9 0.00 0.00 0.00 62 1011.0
20260505011054 60 22 0.0 0.9 0.00 0.00 0.00 60 1010.0
20260505010552 60 217 0.9 1.7 0.00 0.00 0.00 59 1010.0
20260505010053 61 249 0.0 0.0 0.00 0.00 0.00 58 1010.0
20260505005552 61 0 0.0 0.0 0.00 0.00 0.00 56 1010.0
20260505005052 62 233 0.0 0.9 0.00 0.00 0.00 56 1010.0
20260505004553 62 253 0.0 0.9 0.00 0.00 0.00 55 1010.0
20260505004055 63 0 0.0 0.0 0.00 0.00 0.00 51 1010.0
20260505003552 64 0 0.0 0.0 0.00 0.00 0.00 49 1010.0
20260505003054 64 208 0.0 1.7 0.00 0.00 0.00 49 1010.0
20260505002552 65 0 0.0 0.0 0.00 0.00 0.00 47 1010.0
20260505002053 65 82 0.0 0.9 0.00 0.00 0.00 45 1010.0
20260505001553 66 309 0.0 0.0 0.00 0.00 0.00 45 1010.0
20260505001053 66 0 0.0 0.0 0.00 0.00 0.00 44 1010.0
20260505000553 66 86 0.0 0.9 0.00 0.00 0.00 44 1010.0
20260505000053 67 178 0.0 0.9 0.00 0.00 0.00 43 1010.0
20260504235553 67 276 0.0 1.7 0.00 0.00 0.00 42 1010.0
20260504235052 67 283 0.0 0.9 0.00 0.00 0.00 43 1010.0
20260504234552 67 263 0.0 1.7 0.00 0.00 0.00 42 1009.0
20260504234053 68 281 0.9 1.7 0.00 0.00 0.00 41 1009.0
20260504233552 68 222 0.9 1.7 0.00 0.00 0.00 41 1009.0
20260504233053 68 327 0.9 0.9 0.00 0.00 0.00 40 1009.0
20260504232552 69 261 0.9 1.7 0.00 0.00 0.00 40 1009.0
20260504232056 69 264 0.9 1.7 0.00 0.00 0.00 40 1009.0
20260504231555 69 238 0.9 1.7 0.00 0.00 0.00 40 1009.0